Miscellaneous Local Product
Issued by NWS Hastings, NE

Home | Current Version | Previous Version | Graphics & Text | Print | Product List | Glossary On
Versions: 1 2 3 4 5 6 7 8 9 10 11 12 13 14 15 16 17 18 19 20 21 22 23 24 25 26 27 28 29 30 31 32 33 34 35 36 37 38 39 40 41 42 43 44 45 46 47 48 49 50
354
AXUS43 KGID 042102
MISGRI

GID CWA HOURLY WEATHER ROUNDUP
NATIONAL WEATHER SERVICE HASTINGS NE
300 PM CST THU FEB 04 2016

NOTE: "FAIR" INDICATES FEW OR NO CLOUDS BELOW 12,000 FEET WITH NO
SIGNIFICANT WEATHER AND/OR OBSTRUCTIONS TO VISIBILITY.

...SOUTH CENTRAL NEBRASKA...

CITY           SKY/WX    TMP DP  RH WIND       PRES   REMARKS
GRAND ISLAND   SUNNY     29  17  61 NW8       30.22S WCI  21
HASTINGS       SUNNY     27  16  63 W5        30.21S WCI  22
ORD            SUNNY     30  18  60 NW6       30.19S WCI  24
YORK           SUNNY     27  18  69 NW8       30.22S WCI  18
AURORA         SUNNY     28  19  69 NW8       30.21F WCI  20
LEXINGTON      SUNNY     27  15  61 W9        30.20S WCI  18
HOLDREGE       SUNNY     28  16  62 NW5       30.20F WCI  23
HEBRON         SUNNY     28  17  61 W7        30.25S WCI  21

...NEBRASKA PANHANDLE...

CITY           SKY/WX    TMP DP  RH WIND       PRES   REMARKS
CHADRON        SUNNY     32  16  51 W9        30.11F WCI  24
ALLIANCE       SUNNY     26  17  68 W9        30.11S WCI  17
SCOTTSBLUFF    SUNNY     32  16  51 W12       30.11F WCI  23
SIDNEY         SUNNY     30  17  58 W10       30.13F WCI  21

...WESTERN AND NORTH CENTRAL NEBRASKA...

CITY           SKY/WX    TMP DP  RH WIND       PRES   REMARKS
VALENTINE      SUNNY     31  17  56 CALM      30.14F
AINSWORTH      SUNNY     32  17  53 CALM      30.15S
ONEILL         SUNNY     30  17  59 NW3       30.19S
BROKEN BOW     SUNNY     31  16  54 W7        30.17S WCI  24
IMPERIAL       SUNNY     29  16  58 W7        30.18F WCI  22
NORTH PLATTE   SUNNY     32  16  51 NW6       30.17F WCI  26
MCCOOK         SUNNY     29  15  56 W10       30.21F WCI  20

...EASTERN NEBRASKA...

CITY           SKY/WX    TMP DP  RH WIND       PRES   REMARKS
NORFOLK        SUNNY     30  20  66 NW13      30.20R WCI  20
SO SIOUX CITY  SUNNY     31  21  66 NW23      30.20R WCI  18
TEKAMAH        SUNNY     30  22  72 NW13      30.22R WCI  20
COLUMBUS       SUNNY     28  12  50 NW9       30.23R WCI  20
ALBION         SUNNY     29  17  62 NW14      30.20S WCI  18
OMAHA EPPLEY   MOSUNNY   30  19  63 NW10      30.23R WCI  21
MILLARD        MOSUNNY   30  18  61 NW9       30.23S WCI  22
LINCOLN        SUNNY     31  17  56 NW7       30.25S WCI  24
NEBRASKA CITY  SUNNY     28  19  68 W9        30.23R WCI  19
BEATRICE       SUNNY     28  17  65 W9        30.24S WCI  19
FALLS CITY     SUNNY     40  22  48 NW21      30.22R WCI  30

...NORTHERN KANSAS...

CITY           SKY/WX    TMP DP  RH WIND       PRES   REMARKS
GOODLAND       SUNNY     32  12  43 NW6       30.20F WCI  26
HILL CITY      SUNNY     30  16  56 W12       30.25S WCI  20
NORTON         CLEAR     28  12  50 W13       30.22S WCI  18
PHILLIPSBURG   SUNNY     30  14  51 CALM      30.25S
SMITH CENTER   SUNNY     25  16  68 CALM      30.26R
BELOIT         SUNNY     30  16  55 W8        30.26F WCI  23
HAYS           SUNNY     30  12  47 W10       30.26F WCI  21
RUSSELL        SUNNY     31  18  58 W9        30.25F WCI  23
CONCORDIA      SUNNY     29  18  63 NW15      30.26S WCI  18
SALINA         SUNNY     46  13  26 NW15      30.26F
TOPEKA         SUNNY     45  13  27 W16G24    30.24F



USA.gov is the U.S. government's official web portal to all federal, state and local government web resources and services.